| time (UTC) | temp F | wind direction | speed MPH | gust MPH | rain 1hr in | rain 24hr in | rain mn in | humidity % | barometer mb |
| 20260902214746 | 62 | 234 | 5.0 | 12.0 | 0.00 | 0.08 | 0.08 | 96 | 1009.1 |
| 20260902214247 | 62 | 255 | 5.0 | 12.0 | 0.00 | 0.08 | 0.08 | 96 | 1009.1 |
| 20260902214014 | 62 | 230 | 6.0 | 12.0 | 0.00 | 0.08 | 0.08 | 96 | 1009.2 |
| 20260902213246 | 62 | 245 | 6.0 | 14.0 | 0.00 | 0.08 | 0.08 | 96 | 1009.3 |
| 20260902212744 | 62 | 251 | 6.0 | 14.0 | 0.00 | 0.08 | 0.08 | 96 | 1009.4 |
| 20260902212243 | 62 | 230 | 6.0 | 12.0 | 0.00 | 0.08 | 0.08 | 96 | 1009.3 |
| 20260902211743 | 62 | 226 | 4.0 | 10.0 | 0.00 | 0.08 | 0.08 | 96 | 1009.2 |
| 20260902211244 | 62 | 233 | 5.0 | 12.0 | 0.00 | 0.08 | 0.08 | 96 | 1009.2 |
| 20260902210744 | 62 | 221 | 6.0 | 12.0 | 0.00 | 0.08 | 0.08 | 96 | 1009.2 |
| 20260902210243 | 62 | 226 | 4.0 | 6.0 | 0.00 | 0.08 | 0.08 | 96 | 1009.1 |
| 20260902205740 | 62 | 217 | 2.0 | 10.0 | 0.00 | 0.08 | 0.08 | 96 | 1009.2 |
| 20260902205239 | 62 | 204 | 3.0 | 10.0 | 0.00 | 0.08 | 0.08 | 96 | 1009.2 |
| 20260902205006 | 62 | 262 | 3.0 | 9.0 | 0.00 | 0.08 | 0.08 | 96 | 1009.2 |
| 20260902204237 | 62 | 264 | 3.0 | 9.0 | 0.00 | 0.08 | 0.08 | 96 | 1009.1 |
| 20260902203737 | 62 | 209 | 4.0 | 7.0 | 0.00 | 0.08 | 0.08 | 96 | 1009.1 |
| 20260902203236 | 62 | 171 | 4.0 | 7.0 | 0.00 | 0.08 | 0.08 | 96 | 1009.2 |
| 20260902202735 | 62 | 197 | 2.0 | 6.0 | 0.01 | 0.08 | 0.08 | 96 | 1009.2 |
| 20260902202235 | 62 | 206 | 2.0 | 5.0 | 0.01 | 0.08 | 0.08 | 96 | 1009.1 |
| 20260902201954 | 62 | 206 | 3.0 | 5.0 | 0.01 | 0.08 | 0.08 | 96 | 1009.1 |
| 20260902201235 | 62 | 207 | 2.0 | 5.0 | 0.01 | 0.08 | 0.08 | 96 | 1009.1 |
| 20260902200733 | 62 | 206 | 3.0 | 5.0 | 0.01 | 0.08 | 0.08 | 96 | 1009.1 |
| 20260902200232 | 62 | 207 | 3.0 | 5.0 | 0.01 | 0.08 | 0.08 | 96 | 1009.2 |
| 20260902195955 | 62 | 207 | 2.0 | 3.0 | 0.01 | 0.07 | 0.08 | 95 | 1009.2 |
| 20260902195232 | 62 | 207 | 2.0 | 4.0 | 0.01 | 0.07 | 0.08 | 95 | 1009.2 |
| 20260902194734 | 62 | 207 | 3.0 | 4.0 | 0.01 | 0.07 | 0.08 | 95 | 1009.1 |
| 20260902194232 | 62 | 209 | 2.0 | 4.0 | 0.01 | 0.07 | 0.08 | 95 | 1009.2 |
| 20260902193732 | 62 | 209 | 2.0 | 5.0 | 0.01 | 0.07 | 0.08 | 95 | 1009.2 |
| 20260902193233 | 62 | 209 | 2.0 | 5.0 | 0.01 | 0.07 | 0.08 | 95 | 1009.2 |
| 20260902193023 | 62 | 212 | 4.0 | 4.0 | 0.00 | 0.07 | 0.07 | 95 | 1009.2 |
| 20260902192234 | 62 | 213 | 2.0 | 5.0 | 0.01 | 0.07 | 0.07 | 95 | 1009.2 |
| 20260902191733 | 62 | 213 | 2.0 | 5.0 | 0.01 | 0.07 | 0.07 | 95 | 1009.3 |
| 20260902191232 | 62 | 214 | 3.0 | 5.0 | 0.02 | 0.07 | 0.07 | 95 | 1009.3 |
| 20260902190732 | 62 | 216 | 2.0 | 6.0 | 0.02 | 0.07 | 0.07 | 95 | 1009.4 |
| 20260902190235 | 62 | 216 | 3.0 | 6.0 | 0.02 | 0.07 | 0.07 | 95 | 1009.4 |
| 20260902185732 | 62 | 199 | 2.0 | 5.0 | 0.02 | 0.05 | 0.07 | 95 | 1009.4 |
| 20260902185233 | 62 | 199 | 2.0 | 7.0 | 0.02 | 0.05 | 0.07 | 95 | 1009.4 |
| 20260902184734 | 62 | 200 | 3.0 | 7.0 | 0.02 | 0.05 | 0.07 | 95 | 1009.4 |
| 20260902184233 | 62 | 209 | 2.0 | 6.0 | 0.03 | 0.05 | 0.07 | 95 | 1009.4 |
| 20260902184000 | 62 | 206 | 2.0 | 7.0 | 0.03 | 0.05 | 0.07 | 95 | 1009.4 |
| 20260902183233 | 62 | 207 | 4.0 | 7.0 | 0.04 | 0.05 | 0.07 | 95 | 1009.4 |
| 20260902182732 | 62 | 197 | 4.0 | 6.0 | 0.05 | 0.05 | 0.07 | 95 | 1009.4 |
| 20260902182233 | 62 | 193 | 4.0 | 7.0 | 0.04 | 0.05 | 0.06 | 95 | 1009.4 |
| 20260902182004 | 62 | 195 | 4.0 | 7.0 | 0.04 | 0.05 | 0.06 | 95 | 1009.4 |
| 20260902181232 | 62 | 206 | 3.0 | 9.0 | 0.04 | 0.05 | 0.06 | 95 | 1009.4 |
| 20260902180734 | 62 | 206 | 4.0 | 9.0 | 0.03 | 0.05 | 0.05 | 95 | 1009.4 |
| 20260902180233 | 62 | 200 | 4.0 | 9.0 | 0.03 | 0.05 | 0.05 | 95 | 1009.4 |
| 20260902175733 | 62 | 197 | 4.0 | 9.0 | 0.03 | 0.02 | 0.05 | 95 | 1009.4 |
| 20260902175232 | 62 | 197 | 3.0 | 9.0 | 0.03 | 0.02 | 0.05 | 95 | 1009.4 |
| 20260902175000 | 62 | 195 | 5.0 | 9.0 | 0.03 | 0.02 | 0.05 | 94 | 1009.4 |
| 20260902174233 | 62 | 199 | 4.0 | 7.0 | 0.02 | 0.02 | 0.04 | 94 | 1009.4 |
| 20260902173733 | 62 | 209 | 4.0 | 9.0 | 0.02 | 0.02 | 0.04 | 94 | 1009.5 |
| 20260902173233 | 62 | 210 | 3.0 | 10.0 | 0.02 | 0.02 | 0.03 | 94 | 1009.5 |
| 20260902172733 | 61 | 213 | 5.0 | 10.0 | 0.01 | 0.02 | 0.02 | 94 | 1009.5 |
| 20260902172456 | 61 | 196 | 5.0 | 7.0 | 0.01 | 0.02 | 0.02 | 94 | 1009.6 |
| 20260902171959 | 61 | 195 | 4.0 | 7.0 | 0.01 | 0.02 | 0.02 | 94 | 1009.7 |
| 20260902171233 | 61 | 182 | 3.0 | 6.0 | 0.00 | 0.02 | 0.02 | 94 | 1009.7 |
| 20260902170732 | 61 | 183 | 2.0 | 7.0 | 0.00 | 0.02 | 0.02 | 94 | 1009.7 |
| 20260902170231 | 61 | 183 | 4.0 | 7.0 | 0.00 | 0.02 | 0.02 | 94 | 1009.8 |
| 20260902165731 | 61 | 169 | 2.0 | 5.0 | 0.00 | 0.02 | 0.02 | 94 | 1009.9 |
| 20260902165230 | 61 | 166 | 2.0 | 5.0 | 0.00 | 0.02 | 0.02 | 94 | 1010.0 |
| 20260902164729 | 61 | 162 | 3.0 | 6.0 | 0.00 | 0.02 | 0.02 | 94 | 1010.1 |
| 20260902164228 | 61 | 158 | 4.0 | 6.0 | 0.00 | 0.02 | 0.02 | 94 | 1010.0 |
| 20260902163727 | 61 | 140 | 3.0 | 6.0 | 0.00 | 0.02 | 0.02 | 94 | 1010.1 |
| 20260902163227 | 61 | 178 | 3.0 | 6.0 | 0.00 | 0.02 | 0.02 | 94 | 1010.0 |
| 20260902162957 | 61 | 178 | 3.0 | 7.0 | 0.00 | 0.02 | 0.02 | 94 | 1010.2 |
| 20260902162228 | 61 | 180 | 3.0 | 7.0 | 0.00 | 0.02 | 0.02 | 94 | 1010.3 |
| 20260902161725 | 61 | 186 | 4.0 | 7.0 | 0.00 | 0.02 | 0.02 | 94 | 1010.5 |
| 20260902161224 | 61 | 193 | 4.0 | 6.0 | 0.00 | 0.02 | 0.02 | 93 | 1010.4 |
| 20260902160726 | 61 | 199 | 3.0 | 6.0 | 0.00 | 0.02 | 0.02 | 93 | 1010.5 |
| 20260902160224 | 61 | 169 | 4.0 | 9.0 | 0.00 | 0.02 | 0.02 | 93 | 1010.4 |
| 20260902155723 | 61 | 173 | 4.0 | 9.0 | 0.00 | 0.02 | 0.02 | 93 | 1010.5 |
| 20260902155449 | 61 | 186 | 4.0 | 9.0 | 0.00 | 0.02 | 0.02 | 93 | 1010.6 |
| 20260902154716 | 61 | 188 | 4.0 | 9.0 | 0.01 | 0.02 | 0.02 | 93 | 1010.7 |
| 20260902154217 | 61 | 195 | 4.0 | 7.0 | 0.01 | 0.02 | 0.02 | 93 | 1010.7 |
| 20260902153716 | 61 | 193 | 4.0 | 10.0 | 0.01 | 0.02 | 0.02 | 93 | 1010.7 |
| 20260902153215 | 61 | 202 | 3.0 | 10.0 | 0.01 | 0.02 | 0.02 | 93 | 1010.7 |
| 20260902152716 | 61 | 195 | 6.0 | 10.0 | 0.02 | 0.02 | 0.02 | 92 | 1010.7 |
| 20260902152215 | 61 | 180 | 5.0 | 14.0 | 0.02 | 0.02 | 0.02 | 92 | 1010.8 |
| 20260902151721 | 62 | 173 | 6.0 | 14.0 | 0.02 | 0.02 | 0.02 | 92 | 1010.8 |
| 20260902151211 | 62 | 183 | 6.0 | 11.0 | 0.02 | 0.02 | 0.02 | 92 | 1010.9 |
| 20260902150712 | 62 | 182 | 4.0 | 9.0 | 0.02 | 0.02 | 0.02 | 92 | 1011.0 |
| 20260902150211 | 62 | 190 | 5.0 | 9.0 | 0.02 | 0.02 | 0.02 | 92 | 1011.0 |
| 20260902145710 | 62 | 179 | 5.0 | 9.0 | 0.02 | 0.00 | 0.02 | 91 | 1011.0 |
| 20260902145216 | 62 | 169 | 4.0 | 10.0 | 0.02 | 0.00 | 0.02 | 91 | 1011.1 |
| 20260902144709 | 62 | 188 | 6.0 | 10.0 | 0.01 | 0.00 | 0.01 | 90 | 1011.2 |
| 20260902144207 | 62 | 125 | 5.0 | 10.0 | 0.01 | 0.00 | 0.01 | 90 | 1011.3 |
| 20260902143708 | 62 | 142 | 5.0 | 11.0 | 0.01 | 0.00 | 0.01 | 89 | 1011.2 |
| 20260902143207 | 62 | 180 | 6.0 | 12.0 | 0.01 | 0.00 | 0.01 | 89 | 1011.3 |
| 20260902142932 | 63 | 185 | 6.0 | 14.0 | 0.00 | 0.00 | 0.00 | 88 | 1011.4 |
| 20260902142203 | 63 | 166 | 7.0 | 14.0 | 0.00 | 0.00 | 0.00 | 88 | 1011.4 |
| 20260902141707 | 63 | 172 | 7.0 | 14.0 | 0.00 | 0.00 | 0.00 | 87 | 1011.5 |
| 20260902140703 | 63 | 159 | 5.0 | 10.0 | 0.00 | 0.00 | 0.00 | 86 | 1011.5 |
| 20260902140203 | 63 | 149 | 6.0 | 12.0 | 0.00 | 0.00 | 0.00 | 86 | 1011.6 |
| 20260902135703 | 63 | 144 | 6.0 | 12.0 | 0.00 | 0.00 | 0.00 | 85 | 1011.7 |
| 20260902135205 | 63 | 182 | 6.0 | 9.0 | 0.00 | 0.00 | 0.00 | 85 | 1011.6 |
| 20260902134704 | 63 | 186 | 5.0 | 9.0 | 0.00 | 0.00 | 0.00 | 84 | 1011.8 |
| 20260902134430 | 63 | 185 | 5.0 | 10.0 | 0.00 | 0.00 | 0.00 | 85 | 1011.9 |
| 20260902133704 | 63 | 168 | 5.0 | 10.0 | 0.00 | 0.00 | 0.00 | 85 | 1011.9 |
| 20260902133204 | 63 | 183 | 5.0 | 13.0 | 0.00 | 0.00 | 0.00 | 85 | 1012.0 |
| 20260902132704 | 63 | 196 | 5.0 | 13.0 | 0.00 | 0.00 | 0.00 | 85 | 1012.1 |
| 20260902132204 | 63 | 144 | 5.0 | 14.0 | 0.00 | 0.00 | 0.00 | 84 | 1012.2 |
| 20260902131705 | 64 | 164 | 7.0 | 14.0 | 0.00 | 0.00 | 0.00 | 83 | 1012.3 |
| 20260902131205 | 64 | 152 | 7.0 | 12.0 | 0.00 | 0.00 | 0.00 | 82 | 1012.4 |
| 20260902130704 | 64 | 224 | 5.0 | 10.0 | 0.00 | 0.00 | 0.00 | 81 | 1012.4 |
| 20260902130204 | 65 | 180 | 5.0 | 14.0 | 0.00 | 0.00 | 0.00 | 81 | 1012.4 |
| 20260902125703 | 65 | 171 | 8.0 | 14.0 | 0.00 | 0.00 | 0.00 | 81 | 1012.5 |
| 20260902125204 | 65 | 172 | 6.0 | 12.0 | 0.00 | 0.00 | 0.00 | 82 | 1012.5 |
| 20260902124928 | 65 | 148 | 6.0 | 14.0 | 0.00 | 0.00 | 0.00 | 83 | 1012.6 |
| 20260902124204 | 64 | 189 | 6.0 | 14.0 | 0.00 | 0.00 | 0.00 | 85 | 1012.6 |
| 20260902123706 | 64 | 189 | 5.0 | 12.0 | 0.00 | 0.00 | 0.00 | 85 | 1012.8 |
| 20260902123205 | 64 | 183 | 5.0 | 10.0 | 0.00 | 0.00 | 0.00 | 84 | 1012.8 |
| 20260902122704 | 64 | 199 | 6.0 | 10.0 | 0.00 | 0.00 | 0.00 | 83 | 1012.7 |
| 20260902121702 | 64 | 230 | 7.0 | 11.0 | 0.00 | 0.00 | 0.00 | 84 | 1012.8 |
| 20260902121203 | 65 | 219 | 5.0 | 9.0 | 0.00 | 0.00 | 0.00 | 84 | 1012.9 |
| 20260902120701 | 65 | 209 | 4.0 | 11.0 | 0.00 | 0.00 | 0.00 | 83 | 1013.0 |
| 20260902120427 | 65 | 196 | 5.0 | 11.0 | 0.00 | 0.00 | 0.00 | 80 | 1013.0 |
| 20260902115704 | 65 | 214 | 4.0 | 11.0 | 0.00 | 0.00 | 0.00 | 79 | 1013.2 |
| 20260902115202 | 65 | 182 | 7.0 | 13.0 | 0.00 | 0.00 | 0.00 | 79 | 1013.2 |
| 20260902114702 | 65 | 197 | 8.0 | 14.0 | 0.00 | 0.00 | 0.00 | 78 | 1013.4 |
| 20260902114204 | 65 | 258 | 8.0 | 14.0 | 0.00 | 0.00 | 0.00 | 77 | 1013.4 |
| 20260902113703 | 65 | 199 | 7.0 | 15.0 | 0.00 | 0.00 | 0.00 | 78 | 1013.4 |
| 20260902113202 | 65 | 221 | 10.0 | 15.0 | 0.00 | 0.00 | 0.00 | 78 | 1013.6 |
| 20260902112710 | 65 | 231 | 9.0 | 15.0 | 0.00 | 0.00 | 0.00 | 77 | 1013.6 |
| 20260902112445 | 65 | 220 | 9.0 | 15.0 | 0.00 | 0.00 | 0.00 | 77 | 1013.5 |
| 20260902111709 | 65 | 212 | 6.0 | 12.0 | 0.00 | 0.00 | 0.00 | 77 | 1013.5 |
| 20260902111202 | 65 | 228 | 7.0 | 14.0 | 0.00 | 0.00 | 0.00 | 77 | 1013.6 |
| 20260902110705 | 65 | 221 | 8.0 | 14.0 | 0.00 | 0.00 | 0.00 | 77 | 1013.7 |
| 20260902110214 | 65 | 220 | 9.0 | 14.0 | 0.00 | 0.00 | 0.00 | 76 | 1013.7 |
| 20260902105701 | 65 | 226 | 6.0 | 12.0 | 0.00 | 0.00 | 0.00 | 79 | 1013.8 |
| 20260902105202 | 65 | 202 | 7.0 | 13.0 | 0.00 | 0.00 | 0.00 | 80 | 1013.8 |
| 20260902104701 | 65 | 244 | 8.0 | 13.0 | 0.00 | 0.00 | 0.00 | 80 | 1013.9 |
| 20260902104427 | 65 | 230 | 6.0 | 12.0 | 0.00 | 0.00 | 0.00 | 79 | 1014.0 |
| 20260902103924 | 65 | 226 | 7.0 | 13.0 | 0.00 | 0.00 | 0.00 | 79 | 1014.0 |
| 20260902103204 | 65 | 223 | 8.0 | 14.0 | 0.00 | 0.00 | 0.00 | 79 | 1013.9 |
| 20260902102703 | 65 | 193 | 6.0 | 14.0 | 0.00 | 0.00 | 0.00 | 82 | 1013.9 |
| 20260902102202 | 64 | 244 | 6.0 | 11.0 | 0.00 | 0.00 | 0.00 | 82 | 1013.8 |
| 20260902101703 | 64 | 234 | 5.0 | 10.0 | 0.00 | 0.00 | 0.00 | 83 | 1014.1 |
| 20260902101203 | 64 | 251 | 5.0 | 12.0 | 0.00 | 0.00 | 0.00 | 82 | 1014.0 |
| 20260902100702 | 64 | 200 | 6.0 | 14.0 | 0.00 | 0.00 | 0.00 | 82 | 1014.1 |
| 20260902100202 | 64 | 241 | 4.0 | 14.0 | 0.00 | 0.00 | 0.00 | 84 | 1014.2 |
| 20260902095703 | 63 | 237 | 6.0 | 10.0 | 0.00 | 0.00 | 0.00 | 84 | 1014.1 |
| 20260902095202 | 63 | 252 | 5.0 | 11.0 | 0.00 | 0.00 | 0.00 | 84 | 1014.1 |
| 20260902094703 | 63 | 265 | 5.0 | 11.0 | 0.00 | 0.00 | 0.00 | 84 | 1014.1 |
| 20260902094203 | 62 | 212 | 6.0 | 11.0 | 0.00 | 0.00 | 0.00 | 85 | 1014.1 |
| 20260902093704 | 62 | 228 | 4.0 | 11.0 | 0.00 | 0.00 | 0.00 | 84 | 1014.2 |
| 20260902093202 | 62 | 233 | 6.0 | 14.0 | 0.00 | 0.00 | 0.00 | 84 | 1014.2 |
| 20260902092703 | 62 | 216 | 7.0 | 14.0 | 0.00 | 0.00 | 0.00 | 83 | 1014.2 |
| 20260902092432 | 62 | 231 | 5.0 | 11.0 | 0.00 | 0.00 | 0.00 | 83 | 1014.1 |
| 20260902091702 | 62 | 274 | 6.0 | 11.0 | 0.00 | 0.00 | 0.00 | 83 | 1014.1 |
| 20260902091203 | 62 | 227 | 6.0 | 10.0 | 0.00 | 0.00 | 0.00 | 83 | 1014.2 |
| 20260902090704 | 62 | 262 | 5.0 | 10.0 | 0.00 | 0.00 | 0.00 | 84 | 1014.1 |
| 20260902090203 | 62 | 234 | 6.0 | 12.0 | 0.00 | 0.00 | 0.00 | 84 | 1014.1 |
| 20260902085704 | 62 | 210 | 8.0 | 12.0 | 0.00 | 0.00 | 0.00 | 85 | 1014.1 |
| 20260902085204 | 62 | 204 | 6.0 | 10.0 | 0.00 | 0.00 | 0.00 | 85 | 1014.0 |
| 20260902084922 | 62 | 212 | 5.0 | 11.0 | 0.00 | 0.00 | 0.00 | 85 | 1014.2 |
| 20260902084203 | 61 | 248 | 5.0 | 11.0 | 0.00 | 0.00 | 0.00 | 85 | 1014.2 |
| 20260902083704 | 61 | 214 | 6.0 | 11.0 | 0.00 | 0.00 | 0.00 | 85 | 1014.2 |
| 20260902083203 | 61 | 233 | 5.0 | 13.0 | 0.00 | 0.00 | 0.00 | 85 | 1014.2 |
| 20260902082921 | 61 | 235 | 8.0 | 13.0 | 0.00 | 0.00 | 0.00 | 85 | 1014.2 |
| 20260902082202 | 61 | 233 | 7.0 | 12.0 | 0.00 | 0.00 | 0.00 | 86 | 1014.1 |
| 20260902081703 | 61 | 243 | 6.0 | 11.0 | 0.00 | 0.00 | 0.00 | 86 | 1014.3 |
| 20260902081203 | 61 | 241 | 6.0 | 12.0 | 0.00 | 0.00 | 0.00 | 85 | 1014.3 |
| 20260902080703 | 61 | 241 | 5.0 | 15.0 | 0.00 | 0.00 | 0.00 | 85 | 1014.3 |
| 20260902080202 | 61 | 231 | 8.0 | 15.0 | 0.00 | 0.00 | 0.00 | 85 | 1014.2 |
| 20260902075702 | 61 | 224 | 9.0 | 13.0 | 0.00 | 0.00 | 0.00 | 85 | 1014.1 |
| 20260902075202 | 61 | 214 | 5.0 | 13.0 | 0.00 | 0.00 | 0.00 | 86 | 1014.1 |
| 20260902074702 | 61 | 258 | 6.0 | 13.0 | 0.00 | 0.00 | 0.00 | 86 | 1014.1 |
| 20260902074202 | 61 | 231 | 6.0 | 11.0 | 0.00 | 0.00 | 0.00 | 86 | 1014.0 |
| 20260902073703 | 61 | 252 | 7.0 | 13.0 | 0.00 | 0.00 | 0.00 | 86 | 1014.0 |
| 20260902073202 | 61 | 220 | 8.0 | 13.0 | 0.00 | 0.00 | 0.00 | 86 | 1013.9 |
| 20260902072705 | 61 | 207 | 5.0 | 12.0 | 0.00 | 0.00 | 0.00 | 87 | 1013.9 |
| 20260902072203 | 60 | 193 | 6.0 | 12.0 | 0.00 | 0.00 | 0.00 | 87 | 1014.0 |
| 20260902071703 | 60 | 199 | 6.0 | 12.0 | 0.00 | 0.00 | 0.00 | 88 | 1013.9 |
| 20260902071202 | 60 | 214 | 6.0 | 12.0 | 0.00 | 0.00 | 0.00 | 88 | 1014.0 |
| 20260902070705 | 60 | 240 | 5.0 | 10.0 | 0.00 | 0.00 | 0.00 | 89 | 1014.0 |
| 20260902070200 | 59 | 217 | 5.0 | 10.0 | 0.00 | 0.00 | 0.00 | 89 | 1014.0 |
| 20260902065700 | 59 | 224 | 6.0 | 10.0 | 0.00 | 0.00 | 0.00 | 89 | 1014.0 |
| 20260902065201 | 59 | 200 | 4.0 | 10.0 | 0.00 | 0.00 | 0.00 | 90 | 1013.9 |
| 20260902064658 | 59 | 221 | 4.0 | 10.0 | 0.00 | 0.00 | 0.00 | 90 | 1013.9 |
| 20260902064158 | 58 | 235 | 5.0 | 10.0 | 0.00 | 0.00 | 0.00 | 90 | 1013.8 |
| 20260902063657 | 58 | 227 | 5.0 | 13.0 | 0.00 | 0.00 | 0.00 | 90 | 1013.8 |
| 20260902063156 | 58 | 220 | 7.0 | 13.0 | 0.00 | 0.00 | 0.00 | 91 | 1013.8 |
| 20260902062916 | 58 | 230 | 4.0 | 9.0 | 0.00 | 0.00 | 0.00 | 91 | 1013.8 |
| 20260902062155 | 58 | 216 | 4.0 | 7.0 | 0.00 | 0.00 | 0.00 | 91 | 1013.8 |
| 20260902061654 | 58 | 220 | 4.0 | 7.0 | 0.00 | 0.00 | 0.00 | 91 | 1013.9 |
| 20260902061412 | 58 | 206 | 4.0 | 10.0 | 0.00 | 0.00 | 0.00 | 91 | 1013.8 |
| 20260902060652 | 58 | 209 | 5.0 | 10.0 | 0.00 | 0.00 | 0.00 | 91 | 1013.8 |
| 20260902055653 | 57 | 162 | 2.0 | 4.0 | 0.00 | 0.00 | 0.00 | 91 | 1013.7 |
| 20260902055150 | 57 | 151 | 2.0 | 3.0 | 0.00 | 0.00 | 0.00 | 91 | 1013.8 |
| 20260902054651 | 57 | 147 | 1.0 | 3.0 | 0.00 | 0.00 | 0.00 | 91 | 1013.8 |
| 20260902054150 | 57 | 147 | 2.0 | 3.0 | 0.00 | 0.00 | 0.00 | 91 | 1013.8 |
| 20260902053648 | 57 | 147 | 1.0 | 3.0 | 0.00 | 0.00 | 0.00 | 91 | 1013.8 |
| 20260902053145 | 57 | 147 | 1.0 | 4.0 | 0.00 | 0.00 | 0.00 | 91 | 1013.6 |
| 20260902052145 | 57 | 147 | 2.0 | 4.0 | 0.00 | 0.00 | 0.00 | 91 | 1013.5 |
| 20260902051643 | 57 | 147 | 2.0 | 5.0 | 0.00 | 0.00 | 0.00 | 91 | 1013.5 |
| 20260902051408 | 57 | 147 | 3.0 | 7.0 | 0.00 | 0.00 | 0.00 | 91 | 1013.4 |
| 20260902050641 | 57 | 152 | 5.0 | 9.0 | 0.00 | 0.00 | 0.00 | 91 | 1013.4 |
| 20260902050140 | 57 | 157 | 5.0 | 9.0 | 0.00 | 0.00 | 0.00 | 91 | 1013.3 |
| 20260902045640 | 57 | 165 | 4.0 | 7.0 | 0.00 | 0.00 | 0.00 | 91 | 1013.4 |
| 20260902045142 | 57 | 183 | 4.0 | 7.0 | 0.00 | 0.00 | 0.00 | 90 | 1013.5 |
| 20260902044639 | 57 | 180 | 4.0 | 6.0 | 0.00 | 0.00 | 0.00 | 90 | 1013.5 |
| 20260902044136 | 57 | 186 | 3.0 | 5.0 | 0.00 | 0.00 | 0.00 | 90 | 1013.6 |
| 20260902043638 | 57 | 199 | 2.0 | 5.0 | 0.00 | 0.00 | 0.00 | 90 | 1013.7 |
| 20260902043359 | 57 | 199 | 3.0 | 5.0 | 0.00 | 0.00 | 0.00 | 90 | 1013.7 |
| 20260902042633 | 57 | 199 | 3.0 | 7.0 | 0.00 | 0.00 | 0.00 | 90 | 1013.6 |
| 20260902042133 | 57 | 204 | 4.0 | 7.0 | 0.00 | 0.00 | 0.00 | 90 | 1013.5 |
| 20260902041637 | 57 | 210 | 3.0 | 7.0 | 0.00 | 0.00 | 0.00 | 90 | 1013.6 |
| 20260902041412 | 57 | 219 | 2.0 | 6.0 | 0.00 | 0.00 | 0.00 | 89 | 1013.6 |
| 20260902040637 | 57 | 219 | 5.0 | 6.0 | 0.00 | 0.00 | 0.00 | 89 | 1013.5 |
| 20260902035633 | 57 | 230 | 5.0 | 9.0 | 0.00 | 0.00 | 0.00 | 89 | 1013.7 |
| 20260902035134 | 58 | 220 | 4.0 | 9.0 | 0.00 | 0.00 | 0.00 | 89 | 1013.7 |
| 20260902034633 | 58 | 220 | 4.0 | 9.0 | 0.00 | 0.00 | 0.00 | 89 | 1013.7 |
| 20260902034132 | 58 | 213 | 4.0 | 9.0 | 0.00 | 0.00 | 0.00 | 89 | 1013.7 |
| 20260902033633 | 58 | 203 | 4.0 | 9.0 | 0.00 | 0.00 | 0.00 | 89 | 1013.8 |
| 20260902033134 | 58 | 207 | 5.0 | 7.0 | 0.00 | 0.00 | 0.00 | 88 | 1013.7 |
| 20260902032643 | 58 | 212 | 4.0 | 7.0 | 0.00 | 0.00 | 0.00 | 88 | 1013.6 |
| 20260902031900 | 58 | 213 | 4.0 | 9.0 | 0.00 | 0.00 | 0.00 | 88 | 1013.7 |
| 20260902031400 | 58 | 224 | 5.0 | 7.0 | 0.00 | 0.00 | 0.00 | 88 | 1013.8 |
| 20260902030848 | 58 | 241 | 4.0 | 7.0 | 0.00 | 0.00 | 0.00 | 88 | 1013.8 |
| 20260902030130 | 58 | 234 | 5.0 | 7.0 | 0.00 | 0.00 | 0.00 | 88 | 1013.9 |
| 20260902025629 | 58 | 206 | 4.0 | 7.0 | 0.00 | 0.00 | 0.00 | 88 | 1013.8 |
| 20260902025129 | 58 | 233 | 4.0 | 7.0 | 0.00 | 0.00 | 0.00 | 87 | 1014.0 |
| 20260902024627 | 58 | 230 | 4.0 | 7.0 | 0.00 | 0.00 | 0.00 | 87 | 1013.8 |
| 20260902024128 | 58 | 207 | 3.0 | 6.0 | 0.00 | 0.00 | 0.00 | 87 | 1014.0 |
| 20260902023850 | 58 | 197 | 5.0 | 6.0 | 0.00 | 0.00 | 0.00 | 87 | 1014.1 |
| 20260902023125 | 58 | 214 | 3.0 | 5.0 | 0.00 | 0.00 | 0.00 | 87 | 1014.1 |
| 20260902022625 | 59 | 214 | 2.0 | 6.0 | 0.00 | 0.00 | 0.00 | 87 | 1014.1 |
| 20260902022126 | 59 | 202 | 3.0 | 9.0 | 0.00 | 0.00 | 0.00 | 87 | 1014.1 |
| 20260902021626 | 59 | 216 | 4.0 | 11.0 | 0.00 | 0.00 | 0.00 | 86 | 1014.1 |
| 20260902021128 | 59 | 212 | 4.0 | 11.0 | 0.00 | 0.00 | 0.00 | 86 | 1014.2 |
| 20260902020625 | 59 | 252 | 4.0 | 11.0 | 0.00 | 0.00 | 0.00 | 86 | 1014.3 |
| 20260902020121 | 59 | 240 | 4.0 | 11.0 | 0.00 | 0.00 | 0.00 | 86 | 1014.2 |
| 20260902015621 | 59 | 243 | 6.0 | 12.0 | 0.00 | 0.00 | 0.00 | 86 | 1014.2 |
| 20260902015121 | 59 | 241 | 5.0 | 12.0 | 0.00 | 0.00 | 0.00 | 86 | 1014.0 |
| 20260902014620 | 59 | 240 | 5.0 | 10.0 | 0.00 | 0.00 | 0.00 | 86 | 1014.1 |
| 20260902014119 | 59 | 250 | 4.0 | 10.0 | 0.00 | 0.00 | 0.00 | 86 | 1014.2 |
| 20260902013620 | 59 | 228 | 4.0 | 7.0 | 0.00 | 0.00 | 0.00 | 86 | 1014.2 |
| 20260902013117 | 59 | 217 | 3.0 | 7.0 | 0.00 | 0.00 | 0.00 | 86 | 1014.2 |
| 20260902012618 | 59 | 217 | 4.0 | 9.0 | 0.00 | 0.00 | 0.00 | 86 | 1014.2 |
| 20260902012117 | 59 | 196 | 5.0 | 9.0 | 0.00 | 0.00 | 0.00 | 85 | 1014.1 |
| 20260902011843 | 59 | 235 | 4.0 | 9.0 | 0.00 | 0.00 | 0.00 | 85 | 1014.2 |
| 20260902011116 | 59 | 250 | 4.0 | 10.0 | 0.00 | 0.00 | 0.00 | 85 | 1014.2 |
| 20260902010842 | 59 | 247 | 6.0 | 10.0 | 0.00 | 0.00 | 0.00 | 85 | 1014.1 |
| 20260902010114 | 59 | 230 | 5.0 | 9.0 | 0.00 | 0.00 | 0.00 | 85 | 1014.2 |
| 20260902005615 | 59 | 231 | 5.0 | 10.0 | 0.00 | 0.00 | 0.00 | 85 | 1014.2 |
| 20260902005114 | 59 | 235 | 6.0 | 10.0 | 0.00 | 0.00 | 0.00 | 85 | 1014.2 |
| 20260902004611 | 59 | 212 | 4.0 | 9.0 | 0.00 | 0.00 | 0.00 | 85 | 1014.2 |
| 20260902004113 | 59 | 243 | 5.0 | 9.0 | 0.00 | 0.00 | 0.00 | 84 | 1014.2 |
| 20260902003611 | 59 | 230 | 5.0 | 9.0 | 0.00 | 0.00 | 0.00 | 84 | 1014.3 |
| 20260902003110 | 60 | 231 | 4.0 | 9.0 | 0.00 | 0.00 | 0.00 | 84 | 1014.4 |
| 20260902002610 | 60 | 240 | 6.0 | 9.0 | 0.00 | 0.00 | 0.00 | 84 | 1014.4 |
| 20260902002109 | 60 | 258 | 2.0 | 9.0 | 0.00 | 0.00 | 0.00 | 84 | 1014.5 |
| 20260902001609 | 60 | 258 | 5.0 | 9.0 | 0.00 | 0.00 | 0.00 | 84 | 1014.5 |
| 20260902001331 | 60 | 258 | 3.0 | 10.0 | 0.00 | 0.00 | 0.00 | 84 | 1014.5 |
| 20260902000606 | 60 | 243 | 4.0 | 10.0 | 0.00 | 0.00 | 0.00 | 84 | 1014.6 |
| 20260902000106 | 60 | 234 | 6.0 | 10.0 | 0.00 | 0.00 | 0.00 | 84 | 1014.5 |
| 20260901235607 | 60 | 227 | 4.0 | 10.0 | 0.00 | 0.00 | 0.00 | 84 | 1014.5 |
| 20260901235105 | 60 | 234 | 5.0 | 11.0 | 0.00 | 0.00 | 0.00 | 84 | 1014.5 |
| 20260901234605 | 60 | 216 | 4.0 | 12.0 | 0.00 | 0.00 | 0.00 | 83 | 1014.6 |
| 20260901234105 | 60 | 196 | 5.0 | 12.0 | 0.00 | 0.00 | 0.00 | 83 | 1014.6 |
| 20260901233829 | 60 | 220 | 4.0 | 12.0 | 0.00 | 0.00 | 0.00 | 83 | 1014.5 |
| 20260901233106 | 60 | 226 | 4.0 | 10.0 | 0.00 | 0.00 | 0.00 | 83 | 1014.6 |
| 20260901232607 | 60 | 224 | 5.0 | 10.0 | 0.00 | 0.00 | 0.00 | 83 | 1014.6 |
| 20260901232105 | 60 | 227 | 4.0 | 9.0 | 0.00 | 0.00 | 0.00 | 83 | 1014.6 |
| 20260901231605 | 60 | 227 | 5.0 | 10.0 | 0.00 | 0.00 | 0.00 | 83 | 1014.6 |
| 20260901231107 | 60 | 223 | 5.0 | 10.0 | 0.00 | 0.00 | 0.00 | 82 | 1014.7 |
| 20260901230605 | 60 | 223 | 6.0 | 11.0 | 0.00 | 0.00 | 0.00 | 82 | 1014.7 |
| 20260901230105 | 60 | 234 | 7.0 | 11.0 | 0.00 | 0.00 | 0.00 | 82 | 1014.8 |
| 20260901225605 | 60 | 234 | 4.0 | 11.0 | 0.00 | 0.00 | 0.00 | 82 | 1014.8 |
| 20260901225106 | 61 | 217 | 3.0 | 9.0 | 0.00 | 0.00 | 0.00 | 82 | 1014.9 |
| 20260901224606 | 61 | 209 | 3.0 | 10.0 | 0.00 | 0.00 | 0.00 | 82 | 1014.9 |
| 20260901224106 | 61 | 233 | 4.0 | 10.0 | 0.00 | 0.00 | 0.00 | 82 | 1014.9 |
| 20260901223827 | 61 | 228 | 4.0 | 12.0 | 0.00 | 0.00 | 0.00 | 82 | 1014.9 |
| 20260901223105 | 61 | 235 | 6.0 | 12.0 | 0.00 | 0.00 | 0.00 | 82 | 1014.9 |
| 20260901222605 | 61 | 241 | 6.0 | 10.0 | 0.00 | 0.00 | 0.00 | 82 | 1014.8 |
| 20260901222105 | 61 | 251 | 4.0 | 11.0 | 0.00 | 0.00 | 0.00 | 82 | 1014.8 |
| 20260901221825 | 61 | 252 | 6.0 | 12.0 | 0.00 | 0.00 | 0.00 | 82 | 1014.8 |
| 20260901220606 | 61 | 219 | 5.0 | 10.0 | 0.00 | 0.00 | 0.00 | 83 | 1014.8 |
| 20260901220332 | 61 | 235 | 4.0 | 9.0 | 0.00 | 0.00 | 0.00 | 83 | 1014.8 |
| 20260901215604 | 61 | 223 | 5.0 | 9.0 | 0.00 | 0.00 | 0.00 | 83 | 1014.8 |